Location: 3 Angels Observatory
(30.5437°N, 88.5068°W)
Time: 11:40:22
(UTC-05:00)

Amateur Radio Satellites - All Passes

Search period start: 30 October 2014 11:10
Search period end: 31 October 2014 11:10
Location: 3 Angels Observatory, 30.5437°N, 88.5068°W

Satellite Date Start Highest point End Downlink Frequencies (MHz)
Time Altitude Azimuth
KITSAT 1 30 Oct 11:16:48 11:24:51 77° 296° (WNW) 11:32:58 435.175 FM
UKube-1 30 Oct 11:51:17 11:52:57 12° 293° (WNW) 11:54:37 145.840 MHz, 145.915 MHz
ZACube-1 30 Oct 11:56:21 11:59:42 24° 288° (WNW) 12:03:01 437.345 MHz
SO-50 30 Oct 12:24:38 12:27:43 18° 307° (NW) 12:30:52 436.795 FM
Sapphire 30 Oct 12:26:22 12:31:48 75° 65° (ENE) 12:37:12 437.095 MHz 1200 baud AX-25 AFSK
PCSat 30 Oct 12:48:15 12:53:36 62° 249° (WSW) 12:58:54 145.825 MHz
Oscar 16 30 Oct 12:58:45 13:03:03 28° 70° (ENE) 13:07:21 437.025 USB, Beacon 2401.1428
JAS-1B 30 Oct 13:12:27 13:17:42 35° 71° (ENE) 13:22:46 435.800 - 435.900 CW/SSB
UOSAT-12 30 Oct 13:12:53 13:17:25 62° 299° (WNW) 13:22:04 437.025 FM, 437.400 FM
KITSAT 1 30 Oct 13:17:25 13:21:32 15° 315° (NW) 13:25:41 435.175 FM
Uribyol 2 30 Oct 13:29:57 13:33:57 23° 69° (ENE) 13:37:57 436.500 FM
ITAMSAT 1 30 Oct 13:37:23 13:41:35 25° 69° (ENE) 13:45:48 435.822 SSB
AO-Echo 30 Oct 13:42:35 13:47:04 36° 72° (ENE) 13:51:41 ?
Oscar 19 30 Oct 13:50:06 13:55:15 86° 257° (WSW) 14:00:24 437.125 CW, 437.150 USB
AO-27 30 Oct 14:23:31 14:28:43 79° 76° (ENE) 14:33:57 436.795 MHz FM
Gurwin Techsat 1B 30 Oct 14:33:00 14:38:03 47° 73° (ENE) 14:43:08 435.225 FM
Oscar 16 30 Oct 14:37:59 14:42:16 26° 263° (W) 14:46:34 437.025 USB, Beacon 2401.1428
TMSAT-1 30 Oct 14:40:16 14:45:10 40° 72° (ENE) 14:50:06 436.925 FM
JAS-1B 30 Oct 15:03:59 15:08:25 22° 263° (W) 15:12:42 435.800 - 435.900 CW/SSB
Uribyol 2 30 Oct 15:08:30 15:13:10 33° 262° (W) 15:17:52 436.500 FM
ITAMSAT 1 30 Oct 15:16:22 15:20:52 30° 262° (W) 15:25:25 435.822 SSB
AO-Echo 30 Oct 15:22:30 15:25:53 19° 266° (W) 15:29:21 ?
Uosat F 30 Oct 15:34:39 15:37:48 17° 67° (ENE) 15:40:57 435.120 FM
Saudisat 1A 30 Oct 15:40:36 15:45:02 90° 62° (ENE) 15:49:26 436.775 MHz
AO-7 30 Oct 15:54:07 16:02:06 56° 69° (ENE) 16:10:07 29.400 - 29.500 MHz
Gurwin Techsat 1B 30 Oct 16:15:03 16:18:11 16° 266° (W) 16:21:19 435.225 FM
TMSAT-1 30 Oct 16:21:31 16:25:09 19° 265° (W) 16:28:49 436.925 FM
JAS-2 30 Oct 16:46:00 16:51:00 27° 66° (ENE) 16:56:31 435.800 - 435.900 CW/SSB, 435.910 FM
ISS 30 Oct 16:59:32 17:01:37 15° 36° (NE) 17:03:42 145.800 FM
Uosat F 30 Oct 17:11:26 17:16:10 43° 260° (W) 17:20:57 435.120 FM
Hamsat 30 Oct 17:24:54 17:28:26 27° 73° (ENE) 17:31:59 145.90 MHz
OPAL 30 Oct 17:42:38 17:47:12 37° 101° (E) 17:51:45 ?
AO-7 30 Oct 17:48:34 17:55:05 26° 262° (W) 18:01:39 29.400 - 29.500 MHz
AO-40 30 Oct 18:10:03 00:51:37 57° 183° (S) 04:06:44 Beacon 2401.320
JAS-2 30 Oct 18:30:12 18:35:43 39° 264° (W) 18:41:56 435.800 - 435.900 CW/SSB, 435.910 FM
ISS 30 Oct 18:35:17 18:38:26 40° 230° (SW) 18:41:34 145.800 FM
SO-67 30 Oct 18:54:05 18:57:09 31° 75° (ENE) 19:00:14 435.3500 MHz FM
Hamsat 30 Oct 19:01:35 19:04:20 17° 265° (W) 19:07:05 145.90 MHz
RS-15 30 Oct 19:14:43 19:20:59 17° 101° (E) 19:27:09 29.354 - 29.394 USB, Beacon 29.352 USB
KITSAT 1 30 Oct 19:17:39 19:23:28 21° 49° (NE) 19:29:15 435.175 FM
OPAL 30 Oct 19:22:21 19:25:45 19° 294° (WNW) 19:29:10 ?
HO-68 30 Oct 19:23:44 19:25:52 12° 58° (ENE) 19:28:00 435.675 MHz FM
STRAND 1 30 Oct 19:37:10 19:42:19 72° 102° (ESE) 19:47:25 ?
Oscar 10/S400 30 Oct 20:37:15 21:18:18 65° 205° (SSW) 07:27:40 145.825 - 145.975 CW/USB, Beacon 145.810 USB
SO-50 30 Oct 20:59:36 21:04:30 89° 243° (WSW) 21:09:23 436.795 FM
UKube-1 30 Oct 21:03:50 21:06:59 20° 70° (ENE) 21:10:08 145.840 MHz, 145.915 MHz
HO-68 30 Oct 21:05:17 21:12:26 81° 74° (ENE) 21:19:37 435.675 MHz FM
KITSAT 1 30 Oct 21:11:31 21:19:34 76° 247° (WSW) 21:27:36 435.175 FM
STRAND 1 30 Oct 21:20:01 21:20:49 10° 296° (WNW) 21:21:37 ?
RS-15 30 Oct 21:20:46 21:31:53 87° 296° (WNW) 21:42:51 29.354 - 29.394 USB, Beacon 29.352 USB
MaSat-1 30 Oct 21:26:46 21:30:09 25° 107° (ESE) 21:33:19 437.345 MHz
Oscar 11 30 Oct 21:38:22 21:42:30 47° 75° (ENE) 21:46:39 145.825 FM, Beacon 2401.500 USB
UOSAT-12 30 Oct 21:48:23 21:52:15 25° 55° (NE) 21:56:03 437.025 FM, 437.400 FM
FUNcube-1 30 Oct 21:53:27 21:57:21 29° 73° (ENE) 22:01:12 145.950 - 145.970 MHz USB
UKube-1 30 Oct 22:39:17 22:42:56 26° 262° (W) 22:46:37 145.840 MHz, 145.915 MHz
ZACube-1 30 Oct 22:45:55 22:50:27 64° 259° (W) 22:54:55 437.345 MHz
HO-68 30 Oct 22:57:30 23:00:40 13° 267° (W) 23:03:51 435.675 MHz FM
MaSat-1 30 Oct 23:02:48 23:05:28 17° 296° (WNW) 23:08:00 437.345 MHz
Oscar 11 30 Oct 23:18:17 23:18:51 10° 267° (W) 23:19:25 145.825 FM, Beacon 2401.500 USB
UOSAT-12 30 Oct 23:28:22 23:32:18 27° 249° (WSW) 23:36:10 437.025 FM, 437.400 FM
FUNcube-1 30 Oct 23:30:21 23:33:39 20° 264° (W) 23:36:56 145.950 - 145.970 MHz USB
RS-15 30 Oct 23:38:03 23:45:48 21° 318° (NW) 23:53:37 29.354 - 29.394 USB, Beacon 29.352 USB
JAS-1B 31 Oct 01:01:29 01:06:23 18° 96° (E) 01:11:43 435.800 - 435.900 CW/SSB
Oscar 16 31 Oct 01:17:07 01:19:59 15° 94° (E) 01:22:50 437.025 USB, Beacon 2401.1428
Sapphire 31 Oct 01:20:42 01:24:44 22° 106° (ESE) 01:28:46 437.095 MHz 1200 baud AX-25 AFSK
PCSat 31 Oct 01:41:20 01:46:18 39° 109° (ESE) 01:51:18 145.825 MHz
Uribyol 2 31 Oct 01:49:53 01:51:50 12° 93° (E) 01:53:47 436.500 FM
AO-Echo 31 Oct 01:56:07 01:59:58 20° 95° (E) 02:03:46 ?
ITAMSAT 1 31 Oct 01:57:06 01:59:43 14° 94° (E) 02:02:19 435.822 SSB
Oscar 19 31 Oct 02:07:31 02:12:31 53° 101° (E) 02:17:31 437.125 CW, 437.150 USB
PANSAT 31 Oct 02:30:59 02:32:58 14° 155° (SSE) 02:34:57 not established
AO-27 31 Oct 02:42:31 02:47:31 45° 100° (E) 02:52:29 436.795 MHz FM
JAS-1B 31 Oct 02:49:33 02:56:59 76° 285° (WNW) 03:05:51 435.800 - 435.900 CW/SSB
Oscar 16 31 Oct 02:54:36 02:59:29 47° 287° (WNW) 03:04:21 437.025 USB, Beacon 2401.1428
Gurwin Techsat 1B 31 Oct 02:55:16 02:59:55 30° 98° (E) 03:04:32 435.225 FM
TMSAT-1 31 Oct 03:02:14 03:06:35 26° 97° (E) 03:10:54 436.925 FM
Sapphire 31 Oct 03:02:51 03:07:50 38° 299° (WNW) 03:12:51 437.095 MHz 1200 baud AX-25 AFSK
PCSat 31 Oct 03:25:37 03:29:47 22° 303° (WNW) 03:33:58 145.825 MHz
Uribyol 2 31 Oct 03:26:29 03:31:35 58° 286° (WNW) 03:36:38 436.500 FM
AO-Echo 31 Oct 03:33:53 03:38:45 38° 288° (WNW) 03:43:32 ?
ITAMSAT 1 31 Oct 03:34:22 03:39:24 52° 286° (WNW) 03:44:25 435.822 SSB
Oscar 19 31 Oct 03:48:48 03:51:21 14° 294° (WNW) 03:53:54 437.125 CW, 437.150 USB
AO-7 31 Oct 04:02:59 04:09:34 25° 97° (E) 04:16:07 29.400 - 29.500 MHz
PANSAT 31 Oct 04:09:05 04:12:41 38° 166° (SSE) 04:16:17 not established
RS-15 31 Oct 04:19:03 04:25:09 16° 35° (NE) 04:31:20 29.354 - 29.394 USB, Beacon 29.352 USB
AO-27 31 Oct 04:23:21 04:26:36 17° 293° (WNW) 04:29:51 436.795 MHz FM
Gurwin Techsat 1B 31 Oct 04:35:24 04:39:41 25° 290° (WNW) 04:43:57 435.225 FM
TMSAT-1 31 Oct 04:41:51 04:46:23 30° 289° (WNW) 04:50:55 436.925 FM
JAS-1B 31 Oct 04:44:44 04:46:46 11° 297° (WNW) 04:48:53 435.800 - 435.900 CW/SSB
OPAL 31 Oct 04:52:08 04:56:48 37° 70° (ENE) 05:01:25 ?
Uosat F 31 Oct 05:24:30 05:29:34 87° 284° (WNW) 05:34:35 435.120 FM
Saudisat 1A 31 Oct 05:41:24 05:45:46 89° 297° (WNW) 05:50:10 436.775 MHz
JAS-2 31 Oct 05:44:45 05:52:13 46° 98° (E) 05:59:15 435.800 - 435.900 CW/SSB, 435.910 FM
PANSAT 31 Oct 05:48:51 05:52:39 64° 178° (S) 05:56:27 not established
AO-7 31 Oct 05:54:29 06:02:33 57° 291° (WNW) 06:10:38 29.400 - 29.500 MHz
RS-15 31 Oct 06:29:00 06:40:11 64° 60° (ENE) 06:51:50 29.354 - 29.394 USB, Beacon 29.352 USB
OPAL 31 Oct 06:32:00 06:35:41 20° 262° (W) 06:39:21 ?
STRAND 1 31 Oct 06:47:27 06:52:28 58° 74° (ENE) 06:57:30 ?
Hamsat 31 Oct 06:50:59 06:55:11 64° 283° (WNW) 06:59:23 145.90 MHz
PANSAT 31 Oct 07:28:57 07:32:40 47° 191° (S) 07:36:21 not established
JAS-2 31 Oct 07:30:08 07:36:49 32° 293° (WNW) 07:43:16 435.800 - 435.900 CW/SSB, 435.910 FM
SO-67 31 Oct 07:55:00 07:58:27 90° 248° (WSW) 08:01:53 435.3500 MHz FM
STRAND 1 31 Oct 08:30:00 08:31:54 12° 267° (W) 08:33:50 ?
HO-68 31 Oct 08:40:48 08:45:53 20° 95° (E) 08:50:54 435.675 MHz FM
RS-15 31 Oct 08:42:34 08:51:47 30° 255° (WSW) 09:01:23 29.354 - 29.394 USB, Beacon 29.352 USB
MaSat-1 31 Oct 08:51:55 08:53:38 18° 253° (WSW) 08:55:19 437.345 MHz
PANSAT 31 Oct 09:09:42 09:12:27 19° 202° (SSW) 09:15:11 not established
Oscar 11 31 Oct 09:33:11 09:35:20 14° 94° (E) 09:37:28 145.825 FM, Beacon 2401.500 USB
ISS 31 Oct 09:36:29 09:39:47 87° 313° (NW) 09:43:06 145.800 FM
KITSAT 1 31 Oct 09:39:32 09:46:06 28° 105° (ESE) 09:52:40 435.175 FM
HO-68 31 Oct 10:26:49 10:33:50 59° 289° (WNW) 10:40:49 435.675 MHz FM
UKube-1 31 Oct 10:32:10 10:36:32 80° 102° (ESE) 10:40:52 145.840 MHz, 145.915 MHz
PCSat 31 Oct 10:37:50 10:38:58 11° 50° (NE) 10:40:05 145.825 MHz
ZACube-1 31 Oct 10:41:08 10:44:59 35° 98° (E) 10:48:46 437.345 MHz
